This is the latest recevied weather packets stored in our database for station/object PY2UEP-1. If no packets are shown the sender has not sent any weather packets the latest 1 day(s).
| Time | Temp. | Humidity | Pressure | Rain* | Wind** | Luminosity | Snow |
|---|---|---|---|---|---|---|---|
| 1778018148 | 25° C | 62% | 1021.5 hPa | 0 mm | 0.89 m/s, 168° | - | - |
| 1778017848 | 25° C | 62% | 1021.5 hPa | 0 mm | 0.89 m/s, 163° | - | - |
| 1778017548 | 24.44° C | 62% | 1021.5 hPa | 0 mm | 0.45 m/s, 162° | - | - |
| 1778017248 | 25° C | 62% | 1021.5 hPa | 0 mm | 0.89 m/s, 169° | - | - |
| 1778016948 | 25° C | 61% | 1021.5 hPa | 0 mm | 0.89 m/s, 159° | - | - |
| 1778016648 | 25° C | 62% | 1021.2 hPa | 0 mm | 0.89 m/s, 153° | - | - |
| 1778016348 | 25° C | 63% | 1021.3 hPa | 0 mm | 0.45 m/s, 160° | - | - |
| 1778016048 | 24.44° C | 63% | 1021.2 hPa | 0 mm | 0.45 m/s, 201° | - | - |
| 1778015748 | 24.44° C | 63% | 1021.2 hPa | 0 mm | 0.45 m/s, 203° | - | - |
| 1778015448 | 24.44° C | 63% | 1021.2 hPa | 0 mm | 0.45 m/s, 202° | - | - |
| 1778015148 | 24.44° C | 64% | 1021.2 hPa | 0 mm | 0.45 m/s, 201° | - | - |
| 1778014848 | 24.44° C | 64% | 1021.2 hPa | 0 mm | 0.45 m/s, 201° | - | - |
| 1778014548 | 25° C | 64% | 1021.2 hPa | 0 mm | 0.45 m/s, 204° | - | - |
| 1778013948 | 25° C | 66% | 1021.1 hPa | 0 mm | 0.89 m/s, 210° | - | - |
| 1778013648 | 25.56° C | 67% | 1021.1 hPa | 0 mm | 0.45 m/s, 218° | - | - |
| 1778013348 | 25.56° C | 68% | 1021 hPa | 0 mm | 0.45 m/s, 209° | - | - |
| 1778013048 | 25.56° C | 68% | 1021 hPa | 0 mm | 0.45 m/s, 209° | - | - |
| 1778012748 | 26.11° C | 65% | 1020.9 hPa | 0 mm | 0.45 m/s, 212° | - | - |
| 1778012448 | 26.11° C | 66% | 1021 hPa | 0 mm | 0.45 m/s, 214° | - | - |
| 1778012148 | 26.11° C | 64% | 1020.9 hPa | 0 mm | 0.45 m/s, 220° | - | - |
| 1778011848 | 26.11° C | 64% | 1020.9 hPa | 0 mm | 0.45 m/s, 216° | - | - |
| 1778011548 | 26.67° C | 62% | 1021 hPa | 0 mm | 0.45 m/s, 200° | - | - |
| 1778011248 | 26.67° C | 60% | 1021 hPa | 0 mm | 0.45 m/s, 174° | - | - |
| 1778010948 | 26.67° C | 60% | 1020.9 hPa | 0 mm | 0.45 m/s, 182° | - | - |
| 1778010648 | 26.67° C | 59% | 1020.8 hPa | 0 mm | 0.45 m/s, 180° | - | - |
* Rain since midnight (hover to see other rain measurements)
** Current wind speed in m/s (hover to see current wind gust speed)